Aurora, CO

12:52 AM MDT on August 24, 2016 (GMT -0600)
Denver International

Weather History for KDEN - March, 2014

Change the Weather History Date:

Saturday, March 22, 2014

  Actual Average Record
Temperature  
Mean Temperature 28 °F 42 °F  
Max Temperature 36 °F 56 °F 79 °F (2004)
Min Temperature 19 °F 28 °F -3 °F (1952)
Degree Days  
Heating Degree Days 37 23  
Month to date heating degree days 554 566  
Since 1 July heating degree days 5073 5005  
Cooling Degree Days 0 0  
Month to date cooling degree days 0 0  
Year to date cooling degree days 0 0  
Moisture  
Dew Point 23 °F    
Average Humidity 74    
Maximum Humidity 96    
Minimum Humidity 52    
Precipitation  
Precipitation 0.06 in 0.04 in 0.58 in (1936)
Month to date precipitation 0.68 0.58  
Year to date precipitation 1.81 1.36  
Snow  
Snow 0.00 in - - ()
Month to date snowfall 4.8  
Since 1 July snowfall 30.5  
Snow Depth 0.00 in    
Sea Level Pressure  
Sea Level Pressure 30.16 in    
Wind  
Wind Speed 12 mph (ENE)    
Max Wind Speed 24 mph    
Max Gust Speed 30 mph    
Visibility 7 miles    
Events Fog , Snow    
T = Trace of Precipitation, MM = Missing Value Source: NWS Daily Summary

Daily Weather History Graph

Daily Weather History Graph

Search for Another Location

Airport or City:

Trip Planner

Search our weather history database for the weather conditions in past years. The results will help you decide how hot, cold, wet, or windy it might be!

Date:

Astronomy

Mar. 22, 2014 Rise Set
Actual Time 6:58 AM MDT 7:12 PM MDT
Civil Twilight 6:31 AM MDT 7:39 PM MDT
Nautical Twilight 6:00 AM MDT 8:11 PM MDT
Astronomical Twilight 5:27 AM MDT 8:43 PM MDT
Moon 12:34 AM MDT (3/22) 10:44 AM MDT (3/22)
Length of Visible Light 13h 08m
Length of Day
12h 14m
Waning Gibbous, 65% of the Moon is Illuminated
Mar 22
Waning Gibbous
Mar 23
Last Quarter
Mar 30
New
Apr 7
First Quarter
Apr 15
Full

Hourly Weather History & Observations

Time (MDT) Temp. Windchill Dew Point Humidity Pressure Visibility Wind Dir Wind Speed Gust Speed Precip Events Conditions
12:53 AM 36.0 °F 27.1 °F 21.0 °F 55% 30.06 in 10.0 mi SE 13.8 mph - N/A   Overcast
1:53 AM 35.1 °F 24.5 °F 19.9 °F 54% 30.05 in 10.0 mi SE 18.4 mph - N/A   Overcast
2:53 AM 30.0 °F 18.7 °F 16.0 °F 56% 30.04 in 10.0 mi SE 16.1 mph - N/A   Scattered Clouds
3:53 AM 26.1 °F 15.6 °F 17.1 °F 69% 30.03 in 10.0 mi ESE 11.5 mph - N/A   Scattered Clouds
4:53 AM 24.1 °F 12.0 °F 16.0 °F 71% 30.02 in 10.0 mi ESE 13.8 mph - N/A   Partly Cloudy
5:53 AM 24.1 °F 12.5 °F 16.0 °F 71% 30.04 in 10.0 mi SE 12.7 mph - N/A   Partly Cloudy
6:53 AM 19.9 °F 11.1 °F 15.1 °F 81% 30.08 in 10.0 mi SSE 6.9 mph - N/A   Mostly Cloudy
7:53 AM 26.1 °F 16.8 °F 19.0 °F 75% 30.08 in 10.0 mi SW 9.2 mph - N/A   Mostly Cloudy
8:53 AM 28.0 °F 18.6 °F 19.9 °F 72% 30.08 in 10.0 mi WSW 10.4 mph - N/A   Mostly Cloudy
9:53 AM 30.0 °F 21.7 °F 21.0 °F 69% 30.07 in 10.0 mi West 9.2 mph - N/A   Mostly Cloudy
10:53 AM 34.0 °F 26.0 °F 21.9 °F 61% 30.07 in 10.0 mi WSW 10.4 mph - N/A   Mostly Cloudy
11:42 AM 32.0 °F 24.8 °F 21.0 °F 64% 30.06 in 10.0 mi WSW 8.1 mph - N/A   Overcast
11:53 AM 33.1 °F 30.0 °F 21.0 °F 61% 30.08 in 10.0 mi Variable 3.5 mph - N/A   Overcast
12:53 PM 34.0 °F 25.0 °F 24.1 °F 67% 30.08 in 5.0 mi WNW 12.7 mph - 0.00 in Snow Light Snow
1:21 PM 33.1 °F 24.9 °F 25.0 °F 72% 30.08 in 2.0 mi WNW 10.4 mph - 0.00 in Snow Light Snow
1:34 PM 32.0 °F 24.2 °F 27.0 °F 82% 30.08 in 1.0 mi WNW 9.2 mph - 0.00 in Snow Light Snow
1:38 PM 32.0 °F 24.2 °F 27.0 °F 82% 30.08 in 1.0 mi WNW 9.2 mph - 0.00 in Snow Light Snow
1:49 PM 32.0 °F 24.2 °F 28.4 °F 87% 30.08 in 1.0 mi NW 9.2 mph - 0.01 in Snow Light Snow
1:53 PM 32.0 °F 25.6 °F 28.0 °F 85% 30.10 in 1.0 mi NW 6.9 mph - 0.01 in Snow Light Snow
2:33 PM 32.0 °F 24.8 °F 28.9 °F 88% 30.09 in 0.8 mi North 8.1 mph - 0.01 in Snow Light Snow
2:53 PM 32.0 °F 25.6 °F 28.9 °F 88% 30.14 in 0.5 mi North 6.9 mph - 0.02 in Fog , Snow Snow
3:04 PM 32.0 °F 27.5 °F 28.9 °F 88% 30.10 in 1.0 mi North 4.6 mph - 0.01 in Snow Light Snow
3:11 PM 32.0 °F 25.6 °F 28.9 °F 88% 30.10 in 0.8 mi ENE 6.9 mph - 0.01 in Snow Light Snow
3:41 PM 32.0 °F 22.5 °F 28.9 °F 88% 30.12 in 1.5 mi East 12.7 mph - 0.02 in Snow Light Snow
3:53 PM 30.9 °F 20.2 °F 28.0 °F 89% 30.19 in 1.5 mi ENE 15.0 mph - 0.02 in Snow Light Snow
4:33 PM 28.9 °F 17.7 °F 27.0 °F 92% 30.16 in 7.0 mi NE 15.0 mph - 0.00 in Snow Light Snow
4:53 PM 28.9 °F 17.3 °F 26.1 °F 89% 30.25 in 10.0 mi NE 16.1 mph - 0.00 in   Overcast
5:53 PM 27.0 °F 15.6 °F 24.1 °F 89% 30.30 in 10.0 mi NE 13.8 mph - 0.01 in   Overcast
6:53 PM 27.0 °F 16.7 °F 24.1 °F 89% 30.35 in 5.0 mi NE 11.5 mph - 0.00 in Snow Light Snow
7:46 PM 25.0 °F 12.6 °F 23.0 °F 92% 30.27 in 10.0 mi ENE 15.0 mph - 0.00 in   Overcast
7:53 PM 25.0 °F 13.1 °F 23.0 °F 92% 30.36 in 10.0 mi ENE 13.8 mph - 0.00 in   Overcast
8:03 PM 25.0 °F 12.6 °F 23.0 °F 92% 30.28 in 10.0 mi ENE 15.0 mph - N/A   Overcast
8:16 PM 24.1 °F 12.0 °F 21.9 °F 91% 30.28 in 4.0 mi ENE 13.8 mph - 0.00 in Snow Light Snow
8:53 PM 24.1 °F 12.0 °F 21.9 °F 91% 30.38 in 10.0 mi East 13.8 mph - 0.00 in   Overcast
9:53 PM 23.0 °F 11.1 °F 21.0 °F 92% 30.39 in 10.0 mi East 12.7 mph - N/A   Overcast
10:53 PM 23.0 °F 11.7 °F 21.0 °F 92% 30.38 in 10.0 mi ESE 11.5 mph - 0.00 in   Overcast
11:45 PM 23.0 °F 11.1 °F 21.0 °F 92% 30.30 in 10.0 mi ESE 12.7 mph - N/A   Overcast
11:53 PM 24.1 °F 14.4 °F 21.0 °F 88% 30.36 in 10.0 mi SE 9.2 mph - N/A   Overcast